Wind_Speed
44 45 45 46 46 47 48 48 49 50 52 53 54 54 54 54 54 54 53 53 53 53 53 53 54 55 55 55 54 54 54 54 54 53 54 54 54 53 53 53 53 54 54
43 44 44 45 45 45 46 47 48 49 51 52 53 52 52 53 54 54 55 54 54 53 53 54 55 55 55 55 55 55 55 55 55 54 54 54 55 55 55 55 55 55 55
42 43 44 44 45 45 45 46 47 48 49 50 51 52 53 53 53 53 53 54 54 54 54 53 54 54 55 55 55 55 55 55 55 55 55 55 55 55 56 56 56 56 56
41 42 43 44 45 45 45 46 47 48 48 49 50 51 53 53 53 52 51 52 52 52 53 54 55 55 56 56 56 56 56 56 56 56 56 55 55 55 56 56 56 56 56
39 41 42 44 45 45 46 47 47 48 48 49 50 51 52 53 54 53 52 52 51 52 53 54 55 55 56 56 56 56 56 56 57 57 57 57 56 56 56 56 56 55 55
39 40 41 42 43 44 45 46 47 48 49 49 50 50 52 52 53 53 53 53 52 52 53 53 53 54 55 56 56 56 56 56 57 57 57 57 57 57 56 56 55 55 55
40 40 41 42 43 44 45 45 46 47 48 49 49 50 50 51 52 53 53 53 53 53 53 52 51 51 52 53 54 56 57 56 56 56 56 56 56 56 56 56 56 55 55
40 41 42 42 43 44 44 45 46 46 47 48 49 50 50 51 51 52 53 53 53 53 53 53 52 51 52 53 54 55 56 56 56 56 56 56 56 56 56 56 55 55 55
40 42 43 43 43 43 44 44 45 46 47 48 49 49 50 50 50 51 53 54 53 54 54 54 54 54 53 54 54 54 55 55 56 56 56 56 56 55 55 55 55 55 55
40 41 42 43 43 44 44 44 45 46 46 47 48 49 49 49 50 51 52 53 53 54 54 54 54 54 53 53 54 54 54 54 54 55 55 55 54 54 54 53 54 54 54
41 41 42 43 43 43 44 44 45 45 46 47 48 49 49 49 50 50 51 51 52 52 52 53 53 53 54 54 54 54 54 54 53 54 54 53 53 53 53 53 53 53 53
41 41 42 42 43 43 43 44 44 45 45 46 47 48 48 48 48 49 49 49 49 50 51 51 52 53 53 54 54 54 54 53 53 52 52 52 52 53 53 53 52 52 52
40 40 40 41 42 42 42 43 44 44 45 45 45 46 46 47 47 47 47 47 48 49 50 51 51 52 53 53 53 53 52 52 53 52 51 50 51 51 51 51 51 51 52
39 39 39 40 40 41 41 42 42 43 43 43 43 43 44 45 46 46 47 47 48 49 50 51 52 52 52 52 52 52 51 50 51 51 51 50 51 51 50 50 50 50 51
39 39 39 40 40 40 40 40 41 41 41 41 41 42 43 44 45 46 46 47 48 49 50 51 51 51 51 51 50 50 50 50 49 49 50 50 50 50 50 50 50 51 51
38 38 38 38 38 38 39 39 39 39 40 40 41 41 42 44 45 46 46 46 47 49 50 50 50 50 50 49 49 48 48 48 48 48 48 49 49 49 49 49 50 50 50
35 35 36 37 37 38 38 38 38 38 39 40 40 41 42 42 43 45 45 47 47 48 48 48 48 48 47 47 47 46 46 47 47 47 46 47 47 47 47 48 49 48 48
34 34 35 35 36 36 36 37 37 37 38 38 39 40 41 42 43 44 45 45 45 45 45 45 45 45 45 45 45 45 45 45 45 45 45 45 45 45 45 46 47 48 47
33 34 34 35 36 36 36 36 37 37 37 38 39 40 41 42 42 43 43 43 43 43 43 43 44 44 44 44 44 44 44 44 44 44 44 44 44 44 44 45 46 47 47
34 34 34 35 36 36 36 36 36 37 37 38 39 39 40 40 41 41 41 41 41 41 40 40 41 41 41 42 42 42 43 43 43 43 43 43 43 44 44 44 45 45 46
34 34 35 35 35 36 36 36 37 37 38 38 38 38 38 38 38 38 38 38 38 38 38 38 38 39 39 40 40 40 41 41 41 42 41 42 42 43 43 43 44 44 43
32 32 33 33 34 34 34 35 36 36 36 36 36 36 36 36 36 36 36 35 35 35 35 36 36 37 37 37 38 38 39 39 40 40 40 40 41 41 41 42 42 42 40
31 31 32 32 32 33 33 34 34 34 34 34 34 34 34 35 34 34 34 34 34 34 34 34 35 35 35 35 35 36 37 37 38 38 39 39 39 39 39 39 40 40 40
31 31 31 31 32 32 32 32 32 32 32 32 32 32 32 32 33 33 33 33 33 33 33 33 33 33 33 34 34 35 35 36 36 36 37 37 37 37 37 37 37 38 38
31 31 31 31 31 31 31 30 30 30 30 30 30 30 30 31 31 31 31 31 32 32 32 32 32 32 32 33 33 33 33 34 34 35 35 35 35 36 36 36 36 36 36
30 30 30 30 30 30 29 29 29 29 29 29 29 29 29 29 30 30 30 31 31 31 31 31 31 31 31 31 31 31 31 32 32 32 33 33 33 34 34 34 34 34 33
Wind_Direction
257 257 258 258 257 257 258 259 259 258 257 256 255 255 255 255 256 257 257 256 257 258 261 261 261 261 263 263 264 265 264 265 265 264 264 264 264 264 264 265 265 265 265
258 258 258 259 259 259 259 259 259 259 259 258 257 256 256 257 257 258 258 258 258 259 261 261 261 261 262 264 265 265 265 265 264 264 264 264 264 264 265 265 266 265 265
260 260 260 260 260 260 260 261 260 260 260 260 259 258 257 257 258 259 260 260 261 261 261 261 261 260 262 263 264 265 265 264 264 264 264 264 265 265 265 266 267 267 266
262 261 261 261 261 261 261 261 261 261 261 261 260 260 259 258 258 259 260 260 261 261 261 262 262 261 262 262 263 264 264 263 264 265 265 265 265 266 266 266 266 266 266
264 263 263 262 261 261 262 262 262 263 263 262 261 261 260 260 259 260 260 260 260 262 263 263 263 263 263 263 264 264 264 264 264 265 266 266 266 266 266 267 266 266 265
265 264 263 263 263 262 262 262 263 264 264 263 262 262 261 260 259 259 260 260 261 262 263 264 264 264 264 264 264 265 265 265 266 266 266 265 266 266 266 266 266 265 265
266 265 263 263 264 263 263 263 263 264 264 264 263 263 262 261 260 260 260 261 262 262 263 264 264 265 264 265 266 266 267 266 267 267 266 266 266 266 267 267 266 266 265
268 265 264 264 264 264 264 263 263 263 264 264 264 263 263 262 261 261 261 261 262 262 263 264 265 266 267 267 267 267 267 267 267 267 267 267 267 266 266 267 267 266 265
270 267 265 265 266 266 266 266 266 266 266 266 265 264 263 263 263 262 262 262 262 262 263 264 265 266 267 268 268 267 267 267 267 267 267 268 268 267 266 266 266 266 265
271 269 267 266 266 266 266 266 267 267 267 267 266 264 263 263 264 264 264 263 263 263 264 265 265 266 266 267 268 268 268 268 268 267 268 268 267 267 266 266 265 265 265
271 269 268 266 266 266 266 267 268 268 268 268 267 265 264 264 265 265 265 264 264 264 264 265 265 266 266 267 267 267 268 268 268 267 267 266 265 265 265 265 265 265 265
271 269 268 268 268 268 267 268 268 268 268 268 267 266 265 265 265 265 265 265 264 264 264 264 265 265 266 267 268 268 268 267 267 267 266 265 265 265 264 264 264 264 264
272 270 268 269 269 269 269 269 270 269 269 268 267 266 266 266 266 265 265 265 265 265 265 265 266 266 267 267 267 267 267 266 265 265 265 265 265 265 264 263 263 263 263
273 271 269 269 270 270 270 271 271 270 270 269 268 267 267 267 267 267 267 268 268 268 268 267 267 267 267 267 267 266 266 265 265 264 264 265 265 264 264 263 262 262 262
273 271 270 270 271 271 271 271 271 270 269 269 269 269 268 268 269 269 269 269 269 269 269 269 268 268 267 266 266 266 265 265 264 264 264 264 264 264 264 263 263 262 263
272 271 270 270 271 272 273 272 272 271 270 270 270 270 270 270 269 269 270 270 271 271 271 270 269 268 267 267 267 266 265 265 264 264 264 263 263 263 263 263 262 262 262
272 270 270 270 272 273 274 273 272 272 272 271 271 271 270 270 270 270 271 272 272 272 271 270 269 268 267 267 267 266 265 265 264 264 264 264 263 263 263 263 262 263 263
273 272 271 272 272 274 275 273 273 272 273 273 272 272 271 271 272 272 273 273 273 273 272 271 269 268 267 267 266 266 265 265 265 265 265 264 264 263 263 263 263 263 263
275 275 273 273 273 274 275 274 273 273 274 274 274 274 274 273 273 274 274 274 274 273 272 271 269 268 267 267 266 266 265 265 264 264 264 265 265 264 264 264 264 264 264
276 276 275 275 275 275 274 274 274 275 275 275 275 275 274 274 274 274 273 274 274 273 272 271 270 269 268 267 266 265 265 264 264 264 264 264 265 265 265 265 265 264 264
278 277 277 276 275 274 274 274 275 276 276 276 276 276 276 275 275 274 274 274 273 273 271 270 269 269 268 268 267 266 265 264 264 264 264 264 265 265 265 265 265 264 263
281 279 278 278 276 275 275 275 275 276 275 275 276 276 276 276 275 275 274 273 273 272 272 271 270 270 269 268 267 266 266 265 264 264 265 265 265 266 265 265 264 262 262
282 281 280 280 279 278 277 277 277 276 276 276 276 276 277 276 276 275 274 273 273 272 272 272 271 270 269 269 268 268 267 266 266 265 266 266 266 266 266 265 263 263 262
284 283 282 281 280 279 278 278 278 277 277 277 278 278 278 277 276 275 275 273 273 273 273 273 272 270 270 269 269 269 268 267 266 265 266 266 265 265 265 265 264 264 263
284 283 283 283 282 280 279 278 278 278 278 279 279 279 279 278 278 278 277 275 274 274 274 273 272 271 270 270 269 269 269 268 266 266 265 264 264 264 264 264 264 264 263
285 284 283 283 282 281 279 279 278 278 279 279 280 280 280 280 280 279 278 277 275 274 273 272 272 271 271 271 271 270 269 268 266 265 265 264 263 263 263 264 264 263 261
Height
5601 5602 5603 5604 5605 5607 5608 5609 5610 5612 5613 5614 5616 5618 5620 5622 5624 5625 5627 5628 5629 5630 5632 5633 5634 5634 5634 5634 5634 5634 5634 5634 5635 5636 5635 5635 5635 5636 5637 5637 5638 5638 5639
5589 5590 5591 5592 5593 5594 5595 5597 5598 5599 5600 5601 5603 5604 5606 5608 5609 5611 5613 5614 5615 5616 5617 5618 5619 5620 5620 5620 5620 5620 5620 5620 5620 5621 5621 5621 5621 5621 5622 5622 5622 5623 5624
5578 5578 5579 5580 5581 5582 5583 5584 5585 5586 5587 5588 5590 5591 5593 5594 5596 5597 5598 5599 5600 5602 5602 5603 5604 5605 5605 5605 5605 5605 5605 5605 5605 5606 5606 5606 5606 5606 5606 5607 5607 5608 5608
5566 5567 5567 5568 5569 5570 5571 5571 5572 5573 5574 5575 5576 5578 5579 5580 5582 5583 5584 5585 5586 5587 5588 5589 5589 5590 5590 5590 5590 5590 5590 5590 5590 5590 5591 5591 5591 5590 5590 5591 5591 5592 5593
5554 5555 5555 5556 5557 5557 5558 5559 5559 5560 5561 5562 5563 5564 5565 5566 5567 5568 5570 5571 5572 5572 5573 5574 5574 5574 5575 5575 5575 5575 5575 5575 5575 5575 5575 5575 5575 5575 5575 5575 5576 5576 5577
5543 5543 5543 5544 5544 5545 5545 5546 5546 5547 5548 5548 5549 5550 5550 5551 5553 5554 5555 5556 5557 5558 5559 5559 5559 5559 5559 5560 5560 5560 5560 5560 5560 5559 5560 5560 5560 5560 5560 5559 5560 5561 5562
5531 5531 5531 5532 5532 5532 5532 5533 5533 5534 5534 5534 5535 5535 5536 5537 5537 5539 5540 5541 5542 5543 5544 5544 5544 5544 5544 5544 5544 5544 5544 5544 5544 5544 5544 5544 5544 5545 5545 5545 5544 5545 5546
5519 5519 5519 5519 5519 5519 5519 5520 5520 5520 5520 5520 5520 5521 5522 5522 5523 5524 5525 5526 5528 5528 5529 5529 5530 5529 5529 5529 5529 5529 5528 5528 5529 5528 5529 5529 5528 5528 5528 5529 5529 5530 5531
5507 5506 5506 5507 5507 5507 5507 5507 5507 5506 5506 5506 5506 5507 5507 5508 5508 5509 5510 5511 5512 5513 5514 5514 5514 5514 5514 5514 5514 5513 5513 5513 5512 5511 5512 5512 5512 5512 5512 5512 5513 5514 5516
5494 5493 5493 5493 5494 5494 5493 5493 5493 5493 5492 5492 5492 5492 5493 5493 5494 5494 5495 5496 5497 5498 5499 5499 5499 5499 5498 5497 5497 5497 5497 5497 5496 5496 5496 5496 5496 5496 5496 5496 5497 5499 5500
5481 5480 5480 5480 5480 5480 5480 5480 5479 5479 5479 5479 5478 5479 5479 5479 5480 5480 5480 5481 5481 5482 5482 5483 5483 5482 5482 5481 5481 5481 5481 5480 5479 5479 5480 5480 5480 5481 5481 5481 5482 5483 5485
5468 5467 5467 5467 5467 5467 5466 5466 5466 5465 5465 5465 5465 5464 5465 5465 5465 5465 5465 5466 5466 5467 5467 5467 5467 5466 5466 5465 5465 5465 5464 5463 5463 5464 5464 5465 5465 5465 5466 5467 5467 5468 5470
5455 5454 5454 5454 5454 5453 5453 5452 5452 5452 5452 5451 5451 5451 5451 5451 5451 5451 5451 5451 5451 5451 5451 5451 5451 5451 5450 5449 5449 5448 5448 5447 5448 5448 5449 5450 5450 5450 5450 5451 5452 5453 5455
5442 5441 5441 5441 5441 5440 5440 5439 5439 5438 5438 5438 5437 5437 5437 5437 5437 5437 5436 5436 5436 5436 5436 5436 5435 5434 5434 5433 5433 5432 5432 5432 5432 5433 5434 5435 5435 5435 5436 5437 5438 5439 5440
5430 5429 5429 5429 5428 5428 5427 5426 5426 5425 5425 5424 5424 5424 5424 5424 5423 5422 5422 5422 5421 5421 5420 5419 5419 5419 5418 5418 5417 5417 5417 5417 5418 5418 5419 5420 5420 5421 5422 5422 5423 5424 5425
5417 5417 5416 5416 5416 5415 5414 5413 5412 5412 5411 5411 5410 5410 5409 5409 5408 5408 5407 5406 5406 5405 5404 5404 5403 5403 5402 5402 5402 5402 5402 5402 5403 5403 5404 5405 5405 5406 5407 5408 5409 5410 5411
5405 5405 5404 5404 5403 5402 5401 5401 5400 5399 5398 5398 5397 5396 5396 5395 5394 5393 5392 5391 5390 5389 5388 5388 5387 5387 5387 5387 5387 5387 5387 5388 5388 5389 5389 5390 5391 5392 5393 5394 5394 5395 5396
5394 5393 5392 5391 5391 5390 5389 5388 5388 5387 5386 5385 5384 5383 5382 5381 5380 5379 5378 5376 5375 5374 5373 5372 5372 5372 5372 5372 5372 5373 5373 5373 5374 5375 5375 5376 5377 5378 5378 5379 5380 5381 5382
5382 5381 5380 5379 5379 5378 5377 5376 5375 5374 5373 5372 5371 5370 5368 5367 5366 5364 5363 5361 5360 5359 5358 5358 5358 5357 5358 5358 5358 5358 5359 5359 5360 5361 5362 5363 5363 5364 5365 5365 5366 5367 5367
5371 5370 5369 5368 5367 5366 5365 5364 5363 5362 5361 5360 5358 5357 5355 5353 5352 5351 5349 5347 5346 5346 5345 5344 5344 5344 5344 5344 5344 5345 5345 5346 5346 5347 5348 5349 5349 5350 5351 5351 5352 5353 5353
5360 5359 5357 5356 5355 5353 5353 5352 5351 5349 5348 5347 5345 5343 5342 5340 5339 5337 5336 5334 5333 5332 5331 5331 5331 5330 5330 5331 5331 5331 5332 5333 5333 5334 5335 5335 5336 5336 5337 5338 5338 5339 5340
5349 5347 5346 5345 5343 5342 5341 5340 5338 5337 5335 5334 5332 5331 5329 5327 5326 5324 5323 5322 5320 5319 5319 5318 5318 5318 5318 5318 5318 5318 5319 5320 5320 5321 5322 5322 5323 5323 5324 5324 5325 5326 5327
5339 5337 5335 5334 5332 5331 5329 5328 5326 5325 5323 5322 5320 5318 5317 5315 5313 5312 5311 5310 5309 5308 5307 5307 5306 5306 5306 5306 5306 5306 5307 5307 5308 5308 5309 5310 5310 5311 5311 5312 5312 5313 5314
5328 5326 5325 5323 5321 5319 5318 5316 5315 5313 5312 5310 5308 5307 5305 5304 5302 5301 5300 5298 5297 5296 5296 5295 5295 5294 5294 5294 5294 5294 5295 5295 5296 5296 5297 5297 5298 5299 5299 5300 5301 5301 5302
5318 5316 5314 5312 5310 5308 5307 5305 5304 5303 5301 5299 5298 5296 5294 5293 5291 5290 5288 5287 5286 5285 5285 5284 5284 5283 5283 5283 5283 5283 5283 5283 5283 5284 5285 5286 5286 5287 5288 5288 5289 5290 5291
5308 5305 5303 5301 5299 5298 5296 5295 5293 5292 5291 5289 5288 5286 5284 5283 5281 5279 5278 5277 5276 5275 5274 5273 5273 5273 5272 5272 5272 5272 5272 5272 5272 5273 5273 5274 5275 5276 5276 5277 5278 5279 5279